MSR220 EDDF-EDFH

Flight info

Callsign MSR220
Flight time 0h 21m
Altitude 12000
Route SOBRA2L/18 SOBRA DCT SIPVU
Aircraft A346/H-SDE2E3FGHIJ3J4J5M1RWXY/LB1D1

Departure

Time 2026-05-07 19:33
Airport Frankfurt Main Airport (EDDF)

Arrival

Time 2026-05-07 19:54
Airport Frankfurt-Hahn Airport (EDFH)
Time Latitude Longitude Altitude Speed Heading
2026-05-07 19:15 50.04327 8.55199 347 ft 0 kts 159°
2026-05-07 19:18 50.04343 8.55190 354 ft 3 kts 159°
2026-05-07 19:19 50.04360 8.55179 350 ft 3 kts 170°
2026-05-07 19:19 50.04379 8.55181 356 ft 3 kts 213°
2026-05-07 19:19 50.04380 8.55182 347 ft 0 kts 217°
2026-05-07 19:19 50.04377 8.55177 347 ft 1 kts 217°
2026-05-07 19:20 50.04369 8.55165 355 ft 1 kts 233°
2026-05-07 19:20 50.04366 8.55147 352 ft 2 kts 252°
2026-05-07 19:20 50.04364 8.55136 351 ft 0 kts 252°
2026-05-07 19:24 50.04363 8.55132 347 ft 2 kts 252°
2026-05-07 19:24 50.04351 8.55045 347 ft 14 kts 262°
2026-05-07 19:24 50.04329 8.54866 350 ft 8 kts 235°
2026-05-07 19:24 50.04328 8.54864 350 ft 0 kts 234°
2026-05-07 19:27 50.04327 8.54862 349 ft 2 kts 233°
2026-05-07 19:27 50.04298 8.54818 347 ft 9 kts 216°
2026-05-07 19:27 50.04214 8.54827 349 ft 16 kts 160°
2026-05-07 19:27 50.04083 8.54903 348 ft 24 kts 160°
2026-05-07 19:28 50.03992 8.55051 352 ft 10 kts 77°
2026-05-07 19:28 50.04039 8.55038 350 ft 5 kts 247°
2026-05-07 19:28 50.03959 8.54837 351 ft 38 kts 249°
2026-05-07 19:28 50.03875 8.54445 355 ft 37 kts 241°
2026-05-07 19:29 50.03766 8.54080 351 ft 37 kts 247°
2026-05-07 19:29 50.03676 8.53707 353 ft 37 kts 250°
2026-05-07 19:29 50.03586 8.53336 355 ft 36 kts 249°
2026-05-07 19:29 50.03495 8.52970 350 ft 36 kts 249°
2026-05-07 19:30 50.03434 8.52732 357 ft 0 kts 249°
2026-05-07 19:31 50.03431 8.52720 356 ft 3 kts 249°
2026-05-07 19:31 50.03403 8.52611 354 ft 15 kts 236°
2026-05-07 19:31 50.03331 8.52593 349 ft 1 kts 181°
2026-05-07 19:32 50.03175 8.52589 347 ft 51 kts 179°
2026-05-07 19:32 50.02624 8.52609 347 ft 107 kts 180°
2026-05-07 19:32 50.01703 8.52616 349 ft 156 kts 179°
2026-05-07 19:32 50.00597 8.52662 914 ft 157 kts 175°
2026-05-07 19:33 49.99501 8.52713 1638 ft 159 kts 176°
2026-05-07 19:33 49.98376 8.52784 2315 ft 166 kts 176°
2026-05-07 19:33 49.97184 8.52865 2857 ft 178 kts 177°
2026-05-07 19:33 49.95904 8.52951 3360 ft 191 kts 177°
2026-05-07 19:34 49.94527 8.53041 3817 ft 206 kts 178°
2026-05-07 19:34 49.93021 8.53137 4324 ft 227 kts 178°
2026-05-07 19:34 49.91390 8.53242 5079 ft 240 kts 178°
2026-05-07 19:34 49.89706 8.53350 6117 ft 243 kts 179°
2026-05-07 19:35 49.88013 8.53442 7200 ft 243 kts 182°
2026-05-07 19:35 49.86357 8.52964 8195 ft 246 kts 201°
2026-05-07 19:35 49.84702 8.52023 8961 ft 262 kts 201°
2026-05-07 19:35 49.82941 8.51021 9676 ft 277 kts 201°
2026-05-07 19:36 49.81720 8.50325 10141 ft 286 kts 201°
2026-05-07 19:36 49.79368 8.48423 11187 ft 293 kts 226°
2026-05-07 19:36 49.78522 8.46771 11598 ft 301 kts 240°
2026-05-07 19:36 49.77578 8.43792 12033 ft 320 kts 248°
2026-05-07 19:37 49.76899 8.40368 12123 ft 349 kts 261°
2026-05-07 19:37 49.76960 8.35149 12048 ft 387 kts 281°
2026-05-07 19:37 49.77624 8.31062 12024 ft 394 kts 284°
2026-05-07 19:37 49.78296 8.26944 12065 ft 395 kts 283°
2026-05-07 19:38 49.78743 8.24156 12070 ft 395 kts 283°
2026-05-07 19:38 49.79400 8.20025 12065 ft 395 kts 283°
2026-05-07 19:38 49.80054 8.15890 12064 ft 395 kts 283°
2026-05-07 19:38 49.80706 8.11754 12065 ft 396 kts 283°
2026-05-07 19:39 49.81358 8.07616 12065 ft 396 kts 283°
2026-05-07 19:39 49.82011 8.03481 12067 ft 395 kts 283°
2026-05-07 19:39 49.82666 7.99342 12061 ft 396 kts 283°
2026-05-07 19:39 49.83312 7.95260 12069 ft 396 kts 283°
2026-05-07 19:40 49.83967 7.91120 12070 ft 396 kts 283°
2026-05-07 19:40 49.84619 7.86982 12065 ft 396 kts 283°
2026-05-07 19:40 49.85270 7.82837 12065 ft 396 kts 284°
2026-05-07 19:40 49.86166 7.78810 12068 ft 396 kts 294°
2026-05-07 19:41 49.87523 7.75094 12064 ft 395 kts 304°
2026-05-07 19:41 49.89307 7.72087 12069 ft 366 kts 320°
2026-05-07 19:41 49.91361 7.69981 11987 ft 343 kts 329°
2026-05-07 19:41 49.93359 7.68169 11871 ft 324 kts 328°
2026-05-07 19:42 49.95253 7.66454 11758 ft 307 kts 328°
2026-05-07 19:42 49.97066 7.64817 11549 ft 297 kts 328°
2026-05-07 19:42 49.98841 7.63222 11160 ft 294 kts 329°
2026-05-07 19:42 50.00610 7.61635 10718 ft 293 kts 329°
2026-05-07 19:43 50.02375 7.60045 10292 ft 293 kts 329°
2026-05-07 19:43 50.04125 7.58458 9941 ft 289 kts 328°
2026-05-07 19:43 50.05848 7.56886 9610 ft 284 kts 328°
2026-05-07 19:43 50.07587 7.55473 9265 ft 281 kts 342°
2026-05-07 19:44 50.09493 7.55241 9103 ft 273 kts
2026-05-07 19:44 50.11215 7.56340 8959 ft 265 kts 31°
2026-05-07 19:44 50.12737 7.57885 8810 ft 257 kts 33°
2026-05-07 19:44 50.14183 7.59427 8671 ft 248 kts 33°
2026-05-07 19:45 50.15592 7.60920 8522 ft 241 kts 33°
2026-05-07 19:45 50.16964 7.62379 8350 ft 236 kts 33°
2026-05-07 19:45 50.18304 7.63822 8196 ft 232 kts 33°
2026-05-07 19:45 50.19679 7.65062 8041 ft 226 kts 14°
2026-05-07 19:46 50.21203 7.65091 7879 ft 220 kts 340°
2026-05-07 19:46 50.22440 7.63823 7641 ft 218 kts 307°
2026-05-07 19:46 50.23019 7.61672 7409 ft 218 kts 278°
2026-05-07 19:46 50.23142 7.59299 7128 ft 220 kts 263°
2026-05-07 19:47 50.22676 7.57053 6898 ft 218 kts 246°
2026-05-07 19:47 50.21901 7.55023 6603 ft 218 kts 226°
2026-05-07 19:47 50.20820 7.53355 6308 ft 219 kts 224°
2026-05-07 19:47 50.19707 7.51733 6007 ft 219 kts 224°
2026-05-07 19:48 50.18604 7.50119 5776 ft 215 kts 219°
2026-05-07 19:48 50.17405 7.48766 5639 ft 209 kts 214°
2026-05-07 19:48 50.16200 7.47542 5502 ft 204 kts 213°
2026-05-07 19:48 50.15017 7.46362 5357 ft 200 kts 213°
2026-05-07 19:49 50.13847 7.45198 5174 ft 199 kts 213°
2026-05-07 19:49 50.12680 7.44036 5089 ft 200 kts 213°
2026-05-07 19:49 50.11505 7.42868 5061 ft 200 kts 213°
2026-05-07 19:49 50.10327 7.41696 5006 ft 202 kts 213°
2026-05-07 19:50 50.09147 7.40524 4786 ft 200 kts 212°
2026-05-07 19:50 50.07973 7.39359 4511 ft 200 kts 212°
2026-05-07 19:50 50.06805 7.38200 4240 ft 199 kts 212°
2026-05-07 19:50 50.05639 7.37043 3967 ft 198 kts 212°
2026-05-07 19:51 50.04478 7.35893 3699 ft 197 kts 212°
2026-05-07 19:51 50.03333 7.34758 3475 ft 190 kts 212°
2026-05-07 19:51 50.02251 7.33687 3206 ft 181 kts 212°
2026-05-07 19:51 50.01212 7.32659 2941 ft 173 kts 212°
2026-05-07 19:52 50.00243 7.31700 2735 ft 156 kts 212°
2026-05-07 19:52 49.99365 7.30832 2498 ft 143 kts 212°
2026-05-07 19:52 49.98543 7.30018 2281 ft 139 kts 212°
2026-05-07 19:52 49.97727 7.29216 2091 ft 139 kts 211°
2026-05-07 19:53 49.96915 7.28418 1891 ft 137 kts 212°
2026-05-07 19:53 49.96113 7.27623 1715 ft 137 kts 212°
2026-05-07 19:53 49.95323 7.26840 1622 ft 128 kts 213°
2026-05-07 19:53 49.94702 7.26225 1625 ft 77 kts 213°
2026-05-07 19:54 49.94375 7.25898 1633 ft 47 kts 212°
2026-05-07 19:54 49.94104 7.25642 1636 ft 42 kts 211°
2026-05-07 19:54 49.93931 7.25468 1638 ft 27 kts 214°